Find Starlink 34109

NORAD ID: 63807 Int'l Des: 2025-092 Owner: SPXS Country: US Constellation: starlink operational
LEOCIRCULAR

Aktuelle Ansicht

3D-Globus wird geladen...

Über Starlink 34109

Beschreibung wird geladen...

Nächste Überflüge

Passes for default location (London). Set your location on the main map for personalized predictions.

Höhenverlauf

Loading altitude history...

Zweizeiliger Elementsatz

1 63807U 25092D 26158.89954882 .00020096 00000-0 73820-3 0 9997
2 63807 43.0013 22.8674 0002208 276.7068 83.3533 15.27560945 62416
Epoch: 7. Juni 2026 • Age: 27 hours

Aktueller Status

Höhe 484.5 km
Geschwindigkeit 7.62 km/s
Subsatellitenpunkt -12.99°S, 102.23°E
Startdatum 4. Mai 2025
Alter 1 years
Typ internet

Technische Details

Klassifizierung Payload
Masse 575.00 kg
Trockenmasse 530.00 kg
Gesamtmasse 575.00 kg
Länge 0.30 m
Durchmesser 4.10 m
Spannweite 29.00 m
Form Box + pan
Hersteller SPXS
Bus-Typ Starlink V2MO
Phasenstatus In Orbit
Besitzer/Staat SPXS/US

Most Searched